This demonstration page uses our WeatherBlox Daily Observations layout. Learn more.

Left ArrowRight Arrow

39.51506, -84.39828

Hourly Observations for October 16, 2020

Temp ( °F °C ) Dew Point ( °F °C ) Humidity (%) Winds ( mph kmh ) Pressure ( in mb ) Visibility ( mi km ) Precip ( " mm )
12:15 am 00:15 Clear 47 8.1 45 7 93 93 Calm 30.16 1021 10 16.0934 0 0
12:35 am 00:35 Clear 46 8 45 7.1 94 94 NW 3 6 30.16 1021 10 16.0934 0 0
12:55 am 00:55 Clear 46 7.9 44 6.9 93 93 Calm 30.17 1022 10 16.0934 0 0
1:15 am 01:15 Clear 46 8 44 6.8 92 92 WNW 3 6 30.17 1022 10 16.0934 0 0
1:35 am 01:35 Clear 46 7.8 44 6.7 93 93 Calm 30.17 1022 10 16.0934 0 0
1:55 am 01:55 Clear 46 7.7 44 6.4 92 92 Calm 30.18 1022 10 16.0934 0 0
2:15 am 02:15 Clear 46 7.7 42 5.8 88 88 NNW 5 7 30.18 1022 10 16.0934 0 0
2:35 am 02:35 Clear 46 7.7 40 4.7 82 82 NNW 6 9 30.19 1023 10 16.0934 0 0
2:55 am 02:55 Clear 45 7 39 3.8 80 80 NW 3 6 30.21 1023 10 16.0934 0 0
3:15 am 03:15 Clear 44 6.7 38 3.5 80 80 Calm 30.21 1023 10 16.0934 0 0
3:35 am 03:35 Clear 44 6.7 37 2.9 77 77 Calm 30.21 1023 10 16.0934 0 0
3:55 am 03:55 Clear 44 6.5 36 2.1 74 74 NNW 5 7 30.21 1023 10 16.0934 0 0
4:15 am 04:15 Clear 43 6 35 1.9 75 75 NNW 7 11 30.22 1023 10 16.0934 0 0
4:35 am 04:35 Clear 42 5.7 35 1.6 75 75 N 5 7 30.22 1023 10 16.0934 0 0
4:55 am 04:55 Clear 42 5.4 34 1 74 74 Calm 30.23 1024 10 16.0934 0 0
5:15 am 05:15 Clear 41 4.8 33 0.7 75 75 Calm 30.24 1024 10 16.0934 0 0
5:35 am 05:35 Clear 39 4.1 34 1.1 81 81 Calm 30.24 1024 10 16.0934 0 0
5:55 am 05:55 Clear 39 4 33 0.8 80 80 Calm 30.25 1025 10 16.0934 0 0
6:15 am 06:15 Clear 36 2.3 32 0.2 86 86 Calm 30.26 1025 10 16.0934 0 0
6:35 am 06:35 Clear 37 2.5 34 0.9 89 89 Calm 30.27 1025 10 16.0934 0 0
6:55 am 06:55 Clear 35 1.5 31 -0.4 87 87 Calm 30.27 1025 10 16.0934 0 0
7:15 am 07:15 Clear 36 2.2 32 0.2 87 87 Calm 30.27 1025 10 16.0934 0 0
7:35 am 07:35 Clear 35 1.9 32 -0.2 86 86 Calm 30.28 1025 10 16.0934 0 0
7:55 am 07:55 Sunny 35 1.9 32 -0.1 87 87 Calm 30.28 1025 10 16.0934 0 0
8:15 am 08:15 Sunny 35 1.7 32 -0.2 87 87 Calm 30.28 1025 10 16.0934 0 0
8:35 am 08:35 Sunny 35 1.6 34 1 96 96 Calm 30.29 1026 10 16.0934 0 0
8:55 am 08:55 Sunny 37 2.6 35 1.5 93 93 Calm 30.3 1026 10 16.0934 0 0
9:15 am 09:15 Sunny 39 4 33 0.7 79 79 Calm 30.29 1026 10 16.0934 0 0
9:35 am 09:35 Sunny 42 5.3 33 0.7 73 73 Calm 30.3 1026 10 16.0934 0 0
9:55 am 09:55 Sunny 44 6.7 33 0.5 65 65 Calm 30.3 1026 10 16.0934 0 0
10:15 am 10:15 Sunny 46 7.8 34 1.1 63 63 Calm 30.29 1026 10 16.0934 0 0
10:35 am 10:35 Sunny 47 8.6 33 0.3 56 56 Calm 30.28 1025 10 16.0934 0 0
10:55 am 10:55 Sunny 48 9.1 31 -0.4 52 52 Calm 30.28 1025 10 16.0934 0 0
11:15 am 11:15 Sunny 51 10.3 31 -0.6 47 47 Calm 30.29 1026 10 16.0934 0 0
11:35 am 11:35 Sunny 51 10.4 27 -3 39 39 Calm 30.28 1025 10 16.0934 0 0
11:55 am 11:55 Sunny 52 11.1 26 -3.2 37 37 Calm 30.29 1026 10 16.0934 0 0
12:15 pm 12:15 Sunny 52 11 25 -4 35 35 WNW 6 9 30.29 1026 10 16.0934 0 0
12:35 pm 12:35 Sunny 53 11.4 25 -4.1 34 34 NNW 7 11 30.29 1026 10 16.0934 0 0
12:55 pm 12:55 Sunny 53 11.9 26 -3.5 34 34 Calm 30.27 1025 10 16.0934 0 0
1:15 pm 13:15 Sunny 53 11.9 24 -4.7 31 31 Calm 30.25 1025 10 16.0934 0 0
1:35 pm 13:35 Sunny 54 12.3 23 -5 30 30 N 3 6 30.24 1024 10 16.0934 0 0
1:55 pm 13:55 Sunny 55 12.6 22 -5.7 28 28 NW 6 9 30.24 1024 10 16.0934 0 0
2:15 pm 14:15 Sunny 55 12.9 22 -5.6 27 27 WNW 8 13 30.24 1024 10 16.0934 0 0
2:35 pm 14:35 Sunny 56 13.2 21 -6.2 26 26 W 10 17 30.23 1024 10 16.0934 0 0
2:55 pm 14:55 Sunny 56 13.5 21 -6.2 25 25 NW 9 15 30.23 1024 10 16.0934 0 0
3:15 pm 15:15 Sunny 57 13.7 21 -5.9 25 25 NW 12 19 30.22 1023 10 16.0934 0 0
3:35 pm 15:35 Sunny 56 13.3 21 -6.2 25 25 W 5 7 30.21 1023 10 16.0934 0 0
3:55 pm 15:55 Sunny 57 13.7 22 -5.6 26 26 W 10 17 30.2 1023 10 16.0934 0 0
4:15 pm 16:15 Sunny 56 13.6 21 -6 25 25 WNW 8 13 30.2 1023 10 16.0934 0 0
4:35 pm 16:35 Sunny 56 13.3 20 -6.5 25 25 N 6 9 30.19 1022 10 16.0934 0 0
4:55 pm 16:55 Sunny 57 13.7 22 -5.7 26 26 NW 8 13 30.19 1022 10 16.0934 0 0
5:15 pm 17:15 Sunny 56 13.3 21 -6.3 25 25 NNW 9 15 30.19 1022 10 16.0934 0 0
5:35 pm 17:35 Sunny 56 13.2 21 -5.9 26 26 W 6 9 30.19 1022 10 16.0934 0 0
5:55 pm 17:55 Sunny 55 12.9 21 -6.1 26 26 WNW 10 17 30.2 1023 10 16.0934 0 0
6:15 pm 18:15 Sunny 54 12.3 21 -6 28 28 NW 9 15 30.2 1023 10 16.0934 0 0
6:35 pm 18:35 Sunny 53 11.4 23 -5.2 31 31 NW 7 11 30.21 1023 10 16.0934 0 0
6:55 pm 18:55 Sunny 50 10.1 24 -4.4 36 36 NW 5 7 30.22 1023 10 16.0934 0 0
7:15 pm 19:15 Clear 48 8.8 30 -1.3 49 49 NNW 3 6 30.22 1023 10 16.0934 0 0
7:35 pm 19:35 Clear 46 7.5 31 -0.6 57 57 Calm 30.23 1024 10 16.0934 0 0
7:55 pm 19:55 Clear 43 6.1 33 0.3 67 67 Calm 30.24 1024 10 16.0934 0 0
8:15 pm 20:15 Clear 42 5.7 32 0.2 68 68 Calm 30.24 1024 10 16.0934 0 0
8:35 pm 20:35 Clear 42 5.3 33 0.6 72 72 Calm 30.24 1024 10 16.0934 0 0
8:55 pm 20:55 Clear 39 3.8 32 0.2 78 78 Calm 30.25 1024 10 16.0934 0 0
9:15 pm 21:15 Clear 39 3.7 33 0.6 80 80 Calm 30.25 1024 10 16.0934 0 0
9:35 pm 21:35 Clear 39 3.7 33 0.6 80 80 Calm 30.26 1025 10 16.0934 0 0
9:55 pm 21:55 Clear 38 3.1 33 0.3 82 82 Calm 30.26 1025 10 16.0934 0 0
10:15 pm 22:15 Clear 37 2.7 32 0 83 83 Calm 30.27 1025 10 16.0934 0 0
10:35 pm 22:35 Clear 36 2.3 31 -0.4 83 83 Calm 30.27 1025 10 16.0934 0 0
10:55 pm 22:55 Clear 36 2 32 0.1 87 87 Calm 30.27 1025 10 16.0934 0 0
11:15 pm 23:15 Clear 35 1.9 32 0.2 89 89 Calm 30.27 1025 10 16.0934 0 0
11:35 pm 23:35 Clear 35 1.4 32 -0.2 89 89 Calm 30.28 1025 10 16.0934 0 0
11:55 pm 23:55 Clear 35 1.4 32 -0.2 89 89 Calm 30.28 1025 10 16.0934 0 0

Powered by AerisWeather